Bookmark and Share
Track history (hours):
 

Scf Baltica

Last reported at 2014-Apr-17 20:33 UTC. Time now 2014-Apr-19 06:59 UTC.
Position N 59°59' E 026°44'.

Length 250 m; draft 8.8 m.

Type: Ship. MMSI: 636012813.

NotesDate/timePositionNaut miles runAvg speedWind from/ knotsBaromVisibWave heightAir tempDewpointWater temp
2014-Apr-17 20:33N 59°59' E 026°44'5410.8
2014-Apr-17 15:33N 59°48' E 024°59'1110.7
2014-Apr-17 14:33N 59°46' E 024°38'1110.8
2014-Apr-17 13:33N 59°43' E 024°17'1010.4
2014-Apr-17 12:33N 59°40' E 023°58'1110.5
2014-Apr-17 11:33N 59°36' E 023°38'1110.6
2014-Apr-17 10:33N 59°32' E 023°19'29810.6
2014-Apr-16 06:32N 56°01' E 016°44'1110.9
2014-Apr-16 05:33N 55°57' E 016°27'1110.7
2014-Apr-16 04:33N 55°51' E 016°10'1310.6
2014-Apr-16 03:18N 55°45' E 015°49'810.9
2014-Apr-16 02:33N 55°41' E 015°37'1110.9
2014-Apr-16 01:33N 55°36' E 015°19'1110.9
2014-Apr-16 00:33N 55°31' E 015°03'1111.0
2014-Apr-15 23:33N 55°25' E 014°46'1110.8
2014-Apr-15 22:33N 55°18' E 014°32'1111.1
2014-Apr-15 21:33N 55°09' E 014°20'1111.2
2014-Apr-15 20:33N 55°01' E 014°07'1111.0
2014-Apr-15 19:33N 54°57' E 013°49'1110.9
2014-Apr-15 18:33N 54°54' E 013°30'1110.5
2014-Apr-15 17:33N 54°51' E 013°13'1010.1
2014-Apr-15 16:33N 54°47' E 012°56'1010.5
2014-Apr-15 15:33N 54°43' E 012°40'1111.0
2014-Apr-15 14:33N 54°37' E 012°24'10 5.2
2014-Apr-15 12:34N 54°29' E 012°13'1110.6
2014-Apr-15 11:34N 54°25' E 011°56'1211.7
2014-Apr-15 10:34N 54°28' E 011°37'1313.0
2014-Apr-15 09:34N 54°33' E 011°17'13110.9
2014-Apr-14 21:34N 56°43' E 011°49'1110.8
2014-Apr-14 20:33N 56°54' E 011°46'1212.0
2014-Apr-14 19:34N 57°05' E 011°39'1312.7
2014-Apr-14 18:34N 57°17' E 011°31'1212.4
2014-Apr-14 17:34N 57°28' E 011°23'1212.4
2014-Apr-14 16:34N 57°37' E 011°06'1212.5
2014-Apr-14 15:34N 57°45' E 010°49'1313.0
2014-Apr-14 14:34N 57°47' E 010°25'16910.6
2014-Apr-13 22:33N 55°48' E 006°45'10 9.7
2014-Apr-13 21:33N 55°39' E 006°37'10 9.5
2014-Apr-13 20:33N 55°31' E 006°29'9 9.4
2014-Apr-13 19:34N 55°23' E 006°21'81 9.8
2014-Apr-13 11:17N 54°14' E 005°07'17111.4
2014-Apr-12 20:17N 51°48' E 002°38'710.2
2014-Apr-12 19:33N 51°42' E 002°31'1010.2
2014-Apr-12 18:33N 51°34' E 002°21'1010.2
2014-Apr-12 17:33N 51°26' E 002°11'1110.6
2014-Apr-12 16:34N 51°16' E 002°06'1110.6
2014-Apr-12 15:33N 51°10' E 001°53'1111.2
2014-Apr-12 14:33N 51°02' E 001°39'1212.4
2014-Apr-12 13:33N 50°53' E 001°27'1212.3
2014-Apr-12 12:33N 50°41' E 001°20'1211.9
2014-Apr-12 11:32N 50°34' E 001°05'1110.7
2014-Apr-12 10:33N 50°28' E 000°50'1111.0
2014-Apr-12 09:32N 50°25' E 000°33'1111.4
2014-Apr-12 08:33N 50°22' E 000°16'1212.0
2014-Apr-12 07:33N 50°21' W 000°02'1211.9
2014-Apr-12 06:33N 50°25' W 000°20'1212.1
2014-Apr-12 05:33N 50°30' W 000°37'1211.9
2014-Apr-12 04:33N 50°37' W 000°52'1111.4
2014-Apr-12 03:33N 50°45' W 001°06'10 9.6
2014-Apr-12 02:34N 50°50' W 001°19'1 0.8
2014-Apr-12 01:31N 50°50' W 001°20'0 0.0
2014-Apr-12 00:32N 50°50' W 001°20'0 0.0
2014-Apr-11 23:31N 50°50' W 001°20'0 0.0
2014-Apr-11 22:32N 50°50' W 001°20'0 0.0
2014-Apr-11 21:32N 50°50' W 001°20'0 0.0
2014-Apr-11 20:32N 50°50' W 001°20'0 0.0
2014-Apr-11 19:31N 50°50' W 001°20'0 0.0
2014-Apr-11 18:32N 50°50' W 001°20'0 0.0
2014-Apr-11 17:32N 50°50' W 001°20'0 0.0
2014-Apr-11 16:31N 50°50' W 001°20'0 0.0
2014-Apr-11 15:31N 50°50' W 001°20'0 0.0
2014-Apr-11 14:32N 50°50' W 001°20'0 0.0
2014-Apr-11 13:32N 50°50' W 001°20'0 0.0
2014-Apr-11 12:32N 50°50' W 001°20'0 0.0
2014-Apr-11 11:31N 50°50' W 001°20'0 0.0
2014-Apr-11 10:32N 50°50' W 001°20'0 0.0
2014-Apr-11 09:31N 50°50' W 001°20'0 0.0
2014-Apr-11 08:32N 50°50' W 001°20'0 0.0
2014-Apr-11 07:31N 50°50' W 001°20'0 0.0
2014-Apr-11 06:32N 50°50' W 001°20'0 0.0
2014-Apr-11 05:32N 50°50' W 001°20'0 0.0
2014-Apr-11 04:32N 50°50' W 001°20'0 0.0
2014-Apr-11 03:32N 50°50' W 001°20'0 0.0
2014-Apr-11 02:32N 50°50' W 001°20'0 0.0
2014-Apr-11 01:31N 50°50' W 001°20'0 0.0
2014-Apr-11 00:31N 50°50' W 001°20'0 0.0
2014-Apr-10 23:32N 50°50' W 001°20'0 0.0
2014-Apr-10 22:32N 50°50' W 001°20'0 0.0
2014-Apr-10 21:31N 50°50' W 001°20'0 0.0
2014-Apr-10 20:31N 50°50' W 001°20'0 0.0
2014-Apr-10 19:33N 50°50' W 001°20'3 3.1
2014-Apr-10 18:34N 50°47' W 001°19'10 9.7
2014-Apr-10 17:34N 50°44' W 001°04'8 7.9
2014-Apr-10 16:33N 50°37' W 000°58'3 3.3
2014-Apr-10 15:32N 50°35' W 001°01'0 0.1
2014-Apr-10 14:29N 50°35' W 001°01'0 0.3
2014-Apr-10 13:32N 50°35' W 001°02'0 0.0
2014-Apr-10 12:32N 50°35' W 001°02'0 0.0
2014-Apr-10 11:32N 50°35' W 001°02'0 0.0
2014-Apr-10 10:32N 50°35' W 001°02'0 0.0
2014-Apr-10 09:32N 50°35' W 001°02'0 0.0
2014-Apr-10 08:32N 50°35' W 001°02'0 0.2
2014-Apr-10 07:32N 50°35' W 001°01'0 0.1
2014-Apr-10 06:32N 50°35' W 001°01'0 0.0
2014-Apr-10 05:26N 50°35' W 001°01'0 0.0
2014-Apr-10 04:32N 50°35' W 001°01'0 0.0
2014-Apr-10 03:32N 50°35' W 001°01'0 0.0
2014-Apr-10 02:32N 50°35' W 001°01'0 0.0
2014-Apr-10 01:32N 50°35' W 001°01'0 0.2
2014-Apr-10 00:32N 50°35' W 001°02'0 0.1
2014-Apr-09 23:32N 50°35' W 001°02'0 0.0
2014-Apr-09 22:32N 50°35' W 001°02'0 0.0
2014-Apr-09 21:32N 50°35' W 001°02'0 0.0
2014-Apr-09 20:32N 50°35' W 001°02'0 0.3
2014-Apr-09 19:29N 50°35' W 001°01'0 0.0
2014-Apr-09 18:14N 50°35' W 001°01'0 0.0
2014-Apr-09 17:32N 50°35' W 001°01'0 0.0
2014-Apr-09 16:26N 50°35' W 001°01'0 0.0
2014-Apr-09 14:26N 50°35' W 001°01'0 0.0
2014-Apr-09 13:26N 50°35' W 001°01'0 0.0
2014-Apr-09 12:20N 50°35' W 001°01'0 0.3
2014-Apr-09 11:29N 50°35' W 001°02'0 0.1
2014-Apr-09 10:20N 50°35' W 001°02'0 0.0
2014-Apr-09 09:14N 50°35' W 001°02'0 0.0
2014-Apr-09 07:17N 50°35' W 001°02'0 0.1
2014-Apr-09 05:32N 50°35' W 001°01'0 0.0
2014-Apr-09 04:23N 50°35' W 001°01'0 0.0
2014-Apr-09 03:32N 50°35' W 001°01'0 0.0
2014-Apr-09 02:32N 50°35' W 001°01'0 0.0
2014-Apr-09 01:32N 50°35' W 001°01'0 0.0
2014-Apr-09 00:32N 50°35' W 001°01'0 0.0
2014-Apr-08 23:32N 50°35' W 001°01'0 0.2
2014-Apr-08 22:32N 50°35' W 001°02'0 0.0
2014-Apr-08 21:32N 50°35' W 001°02'0 0.0
2014-Apr-08 20:11N 50°35' W 001°02'0 0.0
2014-Apr-08 19:29N 50°35' W 001°02'0 0.3
2014-Apr-08 18:32N 50°35' W 001°01'0 0.1
2014-Apr-08 17:29N 50°35' W 001°01'0 0.0
2014-Apr-08 16:32N 50°35' W 001°01'0 0.0
2014-Apr-08 15:32N 50°35' W 001°01'0 0.0
2014-Apr-08 10:26N 50°35' W 001°01'0 0.0
2014-Apr-08 09:11N 50°35' W 001°01'0 0.1
2014-Apr-08 08:11N 50°35' W 001°01'0 0.1
2014-Apr-08 06:32N 50°35' W 001°01'0 0.0
2014-Apr-08 00:32N 50°35' W 001°01'0 0.0
2014-Apr-07 23:32N 50°35' W 001°01'0 0.0
2014-Apr-07 22:32N 50°35' W 001°01'0 0.1
2014-Apr-07 21:32N 50°35' W 001°01'  

Dump ship's entire track history

sailing weather and tide predictions

Scf Baltica — A8IA5 — position and weather